Home   Weather   Kokkola   Past weeks

Flag for Finland Past Weather in Kokkola, Finland — Yesterday and Last 2 Weeks

Now
34 °F

Clear.


Feels Like: 29 °F
Forecast: 27 / 36 °F
Wind: 6 mph from Southwest

Location: Kruunupyy

Current Time: Jan 22, 2017 at 8:46:00 pm

Latest Report: Jan 22, 2017 at 7:50 pm


Visibility: 10 mi

Pressure: 29.80 "Hg

Humidity: 93%

Dew Point: 32 °F

Location of KokkolaLocation

Past Weather in Kokkola — Graph

°F

Kokkola Temperature Yesterday

Maximum temperature yesterday: 32 °F (at 12:20 am)
Minimum temperature yesterday: 23 °F (at 4:20 pm)
Average temperature yesterday: 29 °F

High & Low Weather Summary for the Past Weeks

 TemperatureHumidityPressure
High43 °F (Jan 19, 2:50 am)100% (Jan 8, 3:50 am)30.27 "Hg (Jan 8, 3:50 am)
Low16 °F (Jan 15, 5:20 am)44% (Jan 19, 7:50 pm)28.94 "Hg (Jan 12, 8:20 am)
Average30 °F86%29.69 "Hg
* Reported Jan 7 7:20 pm — Jan 22 7:20 pm, Kokkola, Weather by CustomWeather, © 2017

Note: Actual official high and low records may vary slightly from our data, if they occured in-between our weather recording intervals... More about our weather records

Advertising

Kokkola Weather History for the Previous 24 Hours

Scroll right to see more
 ConditionsComfort  
Time TempWeatherWind HumidityBarometerVisibility
7:20 pm
Sun, Jan 22
34 °FClear.7 mph93%29.80 "Hg10 mi
6:50 pm34 °FClear.7 mph93%29.80 "Hg10 mi
6:20 pm34 °FPassing clouds.7 mph100%29.83 "HgN/A
5:50 pm34 °FClear.6 mph93%29.83 "Hg10 mi
5:20 pm34 °FClear.7 mph100%29.83 "Hg10 mi
4:50 pm32 °FClear.7 mph100%29.83 "Hg10 mi
4:20 pm32 °FClear.6 mph100%29.83 "Hg10 mi
3:50 pm32 °FPassing clouds.5 mph100%29.86 "HgN/A
3:20 pm30 °FFog.5 mph100%29.86 "HgN/A
2:50 pm32 °FFog.3 mph100%29.86 "Hg1 mi
2:20 pm32 °FIce fog.No wind100%29.86 "Hg2 mi
1:50 pm32 °FIce fog.2 mph100%29.86 "Hg1 mi
1:20 pm32 °FFog.2 mph100%29.89 "Hg1 mi
12:50 pm32 °FFog.3 mph100%29.89 "Hg1 mi
12:20 pm32 °FFog.2 mph100%29.89 "Hg1 mi
11:50 am32 °FLow clouds.1 mph100%29.92 "Hg2 mi
11:20 am32 °FLow clouds.No wind100%29.92 "Hg4 mi
10:50 am32 °FLow clouds.No wind100%29.92 "HgN/A
10:20 am32 °FLow clouds.No wind100%29.92 "HgN/A
9:50 am32 °FLow clouds.2 mph100%29.95 "Hg6 mi
9:20 am32 °FPassing clouds.No wind100%29.92 "HgN/A
8:50 am32 °FMostly cloudy.1 mph100%29.92 "HgN/A
8:20 am32 °FMostly cloudy.No wind100%29.92 "HgN/A
7:50 am32 °FIce fog.No wind100%29.92 "Hg2 mi
7:20 am32 °FIce fog.No wind100%29.95 "Hg2 mi
6:50 am32 °FIce fog.No wind100%29.95 "Hg2 mi
6:20 am32 °FIce fog.2 mph100%29.95 "Hg2 mi
5:50 am32 °FIce fog.2 mph100%29.95 "Hg2 mi
5:20 am32 °FIce fog.3 mph100%29.95 "Hg2 mi
4:50 am32 °FIce fog.5 mph100%29.95 "Hg2 mi
4:20 am32 °FIce fog.7 mph100%29.95 "Hg2 mi
3:50 am32 °FIce fog.6 mph100%29.95 "Hg2 mi
3:20 am32 °FIce fog.6 mph100%29.95 "Hg1 mi
2:50 am32 °FIce fog.3 mph100%29.95 "Hg2 mi
2:20 am30 °FLow clouds.No wind100%29.95 "HgN/A
1:50 am28 °FPassing clouds.2 mph100%29.95 "HgN/A
1:20 am28 °FLow clouds.3 mph100%29.95 "HgN/A
12:50 am28 °FPassing clouds.2 mph100%29.98 "Hg3 mi
12:20 am28 °FLight freezing rain. Ice fog.3 mph100%29.95 "Hg2 mi
11:50 pm
Sat, Jan 21
28 °FLight snow. Ice fog.5 mph100%29.98 "Hg2 mi
11:20 pm28 °FLight snow. Partly cloudy.5 mph93%29.98 "Hg2 mi
10:50 pm28 °FLight snow. Partly cloudy.5 mph100%30.01 "HgN/A
10:20 pm28 °FLight freezing rain. Overcast.6 mph100%30.01 "Hg3 mi
9:50 pm28 °FSnow flurries. Ice fog.5 mph93%30.04 "Hg2 mi
9:20 pm27 °FLight snow. Overcast.6 mph100%30.04 "Hg4 mi
8:50 pm27 °FLight snow. Passing clouds.6 mph93%30.04 "Hg2 mi
8:20 pm27 °FLight snow. Mostly cloudy.6 mph93%30.07 "HgN/A
Weather by CustomWeather, © 2017

See weather overviewHow to use our weather pages